Location: Unspecified
(0.0000°N, 0.0000°E)
Time: 15:57:29
(UTC+00:00)

FARADAY_PHOENIX - Visible Passes

Search period start: 14 January 2026 00:00
Search period end: 24 January 2026 00:00
Orbit: 401 x 409 km, 97.7° (Epoch: 14 January)

Date Brightness Start Highest point End Pass type
(mag) Time Alt. Az. Time Alt. Az. Time Alt. Az.
15 Jan ? 05:28:40 10° SSE 05:31:47 61° E 05:34:53 10° N visible
17 Jan ? 05:22:56 10° SSE 05:25:57 44° E 05:28:57 10° N visible
19 Jan ? 05:17:05 10° SE 05:19:57 32° ENE 05:22:47 10° NNE visible
21 Jan ? 05:11:09 10° SE 05:13:46 24° ENE 05:16:20 10° NNE visible
23 Jan ? 05:05:09 10° SE 05:07:22 18° E 05:09:36 10° NNE visible
